EW9634 Weather Reports


Display with metric or nautical units.
time (UTC)temp
F
wind
direction
speed
MPH
gust
MPH
rain 1hr
in
rain 24hr
in
rain mn
in
humidity
%
barometer
mb
20260510163004 63 45 5.0 7.0 0.00 0.00 0.00 41 1018.9
20260510162003 63 45 8.0 13.0 0.00 0.00 0.00 43 1018.9
20260510161003 63 0 9.0 12.0 0.00 0.00 0.00 41 1018.8
20260510160008 62 68 3.0 5.0 0.00 0.00 0.00 47 1018.7
20260510155003 62 68 6.0 10.0 0.00 0.00 0.00 43 1018.7
20260510154003 61 68 7.0 11.0 0.00 0.00 0.00 44 1018.7
20260510153023 61 45 5.0 7.0 0.00 0.00 0.00 45 1018.7
20260510152003 61 45 4.0 6.0 0.00 0.00 0.00 47 1018.5
20260510151003 60 45 6.0 9.0 0.00 0.00 0.00 47 1018.3
20260510150023 59 45 3.0 6.0 0.00 0.00 0.00 49 1018.4
20260510145003 59 45 5.0 8.0 0.00 0.00 0.00 48 1018.3
20260510144003 58 45 7.0 11.0 0.00 0.00 0.00 47 1018.2
20260510143003 58 45 4.0 6.0 0.00 0.00 0.00 47 1018.4
20260510142003 58 45 6.0 11.0 0.00 0.00 0.00 47 1018.4
20260510141023 57 45 5.0 9.0 0.00 0.00 0.00 46 1018.4
20260510140004 58 68 4.0 8.0 0.00 0.00 0.00 48 1018.5
20260510135003 58 45 4.0 5.0 0.00 0.00 0.00 49 1018.3
20260510134003 57 45 5.0 9.0 0.00 0.00 0.00 48 1018.1
20260510133002 57 23 4.0 7.0 0.00 0.00 0.00 50 1018.1
20260510132002 56 23 8.0 12.0 0.00 0.00 0.00 47 1017.9
20260510131002 56 23 7.0 11.0 0.00 0.00 0.00 47 1017.9
20260510130023 56 45 7.0 11.0 0.00 0.00 0.00 48 1017.6
20260510125002 56 23 7.0 10.0 0.00 0.00 0.00 48 1017.4
20260510124002 56 23 7.0 10.0 0.00 0.00 0.00 48 1017.2
20260510123004 56 23 7.0 11.0 0.00 0.00 0.00 49 1016.8
20260510122023 56 45 4.0 6.0 0.00 0.00 0.00 49 1016.9
20260510121003 56 45 4.0 8.0 0.00 0.00 0.00 50 1016.4
20260510120008 56 45 4.0 8.0 0.00 0.00 0.00 49 1016.4
20260510115002 56 45 7.0 9.0 0.00 0.00 0.00 50 1015.9
20260510114042 56 45 8.0 12.0 0.00 0.00 0.00 49 1015.8
20260510113002 56 23 8.0 13.0 0.00 0.00 0.00 49 1015.8
20260510112002 56 45 4.0 5.0 0.00 0.00 0.00 49 1015.5
20260510111002 57 45 8.0 14.0 0.00 0.00 0.00 48 1015.5
20260510110003 57 45 8.0 10.0 0.00 0.01 0.00 47 1015.5
20260510105002 58 23 6.0 10.0 0.00 0.01 0.00 46 1015.5
20260510104002 58 45 5.0 7.0 0.00 0.01 0.00 48 1015.3
20260510103002 58 45 5.0 7.0 0.00 0.01 0.00 49 1015.2
20260510102003 58 45 5.0 7.0 0.00 0.01 0.00 50 1015.0
20260510101002 58 23 7.0 11.0 0.00 0.01 0.00 51 1014.9
20260510100002 58 45 6.0 9.0 0.00 0.01 0.00 51 1014.4
20260510095022 59 45 5.0 9.0 0.00 0.01 0.00 51 1014.3
20260510094022 59 45 8.0 12.0 0.00 0.01 0.00 51 1014.4
20260510093002 59 45 6.0 10.0 0.00 0.01 0.00 50 1014.4
20260510092002 60 23 10.0 15.0 0.00 0.01 0.00 51 1014.4
20260510091023 60 23 11.0 14.0 0.00 0.01 0.00 51 1014.3
20260510090023 61 45 4.0 6.0 0.00 0.01 0.00 55 1014.1
20260510085002 61 23 5.0 9.0 0.00 0.01 0.00 56 1013.9
20260510084002 62 45 7.0 11.0 0.00 0.01 0.00 58 1013.6
20260510083002 62 68 9.0 14.0 0.00 0.01 0.00 58 1013.6
20260510082022 62 45 8.0 12.0 0.00 0.01 0.00 58 1013.5
20260510081022 62 23 6.0 10.0 0.00 0.01 0.00 58 1013.2
20260510080002 63 45 6.0 10.0 0.00 0.01 0.00 59 1013.2
20260510075002 63 23 9.0 10.0 0.00 0.01 0.00 59 1013.4
20260510074002 63 0 3.0 4.0 0.00 0.01 0.00 62 1013.2
20260510073002 63 45 2.0 2.0 0.00 0.01 0.00 62 1013.0
20260510072002 63 45 3.0 4.0 0.00 0.01 0.00 62 1013.0
20260510071002 63 68 1.0 2.0 0.00 0.01 0.00 62 1012.8
20260510070002 64 23 3.0 4.0 0.00 0.01 0.00 59 1012.8
20260510065004 64 0 3.0 4.0 0.00 0.01 0.00 59 1012.8
20260510064003 64 45 2.0 3.0 0.00 0.01 0.00 60 1012.6
20260510063005 64 68 3.0 4.0 0.00 0.01 0.00 58 1012.2
20260510062004 65 68 3.0 4.0 0.00 0.01 0.00 56 1012.4
20260510061044 65 68 6.0 8.0 0.00 0.01 0.00 56 1012.3
20260510060040 66 68 2.0 3.0 0.00 0.01 0.00 56 1012.5
20260510055004 66 68 3.0 5.0 0.00 0.01 0.00 55 1012.4
20260510054004 66 90 3.0 3.0 0.00 0.01 0.00 55 1012.3
20260510053005 67 68 6.0 10.0 0.00 0.01 0.00 55 1012.0
20260510052004 67 68 2.0 3.0 0.00 0.01 0.00 57 1012.1
20260510051004 67 90 7.0 9.0 0.00 0.01 0.00 58 1012.1
20260510050129 67 0.0 1.0 0.00 0.01 0.00 60 1011.8
20260510045102 68 158 3.0 5.0 0.00 0.01 0.01 59 1011.5
20260510044102 68 45 2.0 3.0 0.00 0.01 0.01 59 1010.8
20260510043102 68 45 2.0 4.0 0.00 0.01 0.01 59 1010.2
20260510042103 67 45 2.0 4.0 0.00 0.01 0.01 60 1010.1
20260510041122 67 23 2.0 3.0 0.00 0.01 0.01 61 1009.9
20260510035102 67 68 2.0 3.0 0.00 0.01 0.01 61 1009.7
20260510034102 67 45 2.0 3.0 0.00 0.01 0.01 61 1009.7
20260510033102 67 68 1.0 3.0 0.00 0.01 0.01 64 1009.7
20260510032102 67 90 3.0 3.0 0.00 0.01 0.01 62 1009.6
20260510031102 68 293 1.0 1.0 0.00 0.01 0.01 63 1009.7
20260510025122 70 0 5.0 6.0 0.00 0.01 0.01 55 1009.6
20260510024122 70 338 4.0 6.0 0.00 0.01 0.01 55 1009.4
20260510023102 70 23 2.0 3.0 0.00 0.01 0.01 54 1008.9
20260510022102 70 45 3.0 5.0 0.00 0.01 0.01 53 1008.4
20260510021102 71 23 6.0 8.0 0.00 0.01 0.01 53 1008.4
20260510015102 71 0 6.0 8.0 0.00 0.01 0.01 51 1008.2
20260510014101 72 0 8.0 11.0 0.00 0.01 0.01 51 1007.8
20260510013102 71 0 4.0 6.0 0.00 0.01 0.01 52 1007.6
20260510012102 72 45 3.0 4.0 0.00 0.01 0.01 52 1007.3
20260510011101 73 45 3.0 4.0 0.00 0.01 0.01 50 1007.3
20260510010106 74 23 3.0 5.0 0.00 0.01 0.01 48 1007.2
20260510005101 74 45 4.0 8.0 0.00 0.01 0.01 47 1007.1
20260510004004 75 338 11.0 15.0 0.00 0.01 0.01 46 1007.0
20260510003005 75 0 12.0 16.0 0.00 0.01 0.01 46 1006.7
20260510002004 76 338 9.0 12.0 0.00 0.01 0.01 45 1006.6
20260510001004 76 338 12.0 15.0 0.00 0.01 0.01 43 1006.4
20260510000053 77 0 16.0 20.0 0.00 0.01 0.01 42 1006.5
20260509235004 78 315 8.0 11.0 0.00 0.01 0.01 44 1006.0
20260509234024 78 338 9.0 11.0 0.00 0.01 0.01 43 1005.9
20260509233004 78 338 10.0 12.0 0.00 0.01 0.01 43 1006.0
20260509232003 79 293 4.0 5.0 0.00 0.01 0.01 42 1006.0
20260509231003 79 270 6.0 9.0 0.00 0.01 0.01 39 1005.9
20260509230009 79 270 7.0 11.0 0.00 0.01 0.01 40 1005.8
20260509225003 79 270 4.0 7.0 0.00 0.01 0.01 42 1005.8
20260509224004 80 270 4.0 7.0 0.00 0.01 0.01 42 1005.8
20260509223004 80 270 6.0 8.0 0.00 0.01 0.01 40 1005.7
20260509222024 80 270 6.0 9.0 0.00 0.01 0.01 39 1005.7
20260509221004 81 248 8.0 11.0 0.00 0.01 0.01 39 1005.6
20260509220009 82 270 11.0 16.0 0.00 0.01 0.01 39 1005.6
20260509215024 81 270 10.0 12.0 0.00 0.01 0.01 39 1005.6
20260509214004 81 293 7.0 9.0 0.00 0.01 0.01 39 1005.7
20260509213044 82 225 6.0 9.0 0.00 0.01 0.01 42 1005.6
20260509212003 83 270 8.0 12.0 0.00 0.01 0.01 38 1005.8
20260509211003 82 270 8.0 20.0 0.00 0.01 0.01 40 1005.7
20260509210008 83 270 10.0 13.0 0.00 0.01 0.01 39 1005.7
20260509205003 82 270 7.0 10.0 0.00 0.01 0.01 41 1005.8
20260509204003 81 270 4.0 6.0 0.00 0.01 0.01 43 1005.8
20260509203003 82 248 6.0 9.0 0.00 0.01 0.01 42 1006.0
20260509202003 82 270 10.0 11.0 0.00 0.01 0.01 40 1006.0
20260509201004 82 248 11.0 14.0 0.00 0.01 0.01 43 1006.1
20260509200008 82 248 10.0 13.0 0.00 0.01 0.01 44 1006.2
20260509195005 81 248 9.0 11.0 0.00 0.01 0.01 43 1006.3
20260509194003 82 248 9.0 14.0 0.00 0.01 0.01 45 1006.4
20260509193003 81 270 8.0 13.0 0.00 0.01 0.01 44 1006.6
20260509192003 81 270 8.0 10.0 0.00 0.01 0.01 46 1006.6
20260509191003 80 248 9.0 15.0 0.00 0.01 0.01 48 1006.8
20260509190011 80 270 8.0 11.0 0.00 0.01 0.01 46 1006.8
20260509185003 80 248 10.0 15.0 0.00 0.01 0.01 49 1006.9
20260509184003 80 225 12.0 16.0 0.00 0.01 0.01 48 1006.9
20260509183004 79 225 7.0 11.0 0.00 0.01 0.01 53 1006.9
20260509182003 79 270 9.0 12.0 0.00 0.01 0.01 48 1007.0
20260509181003 79 225 10.0 14.0 0.00 0.01 0.01 50 1007.1
20260509180008 79 270 10.0 13.0 0.00 0.01 0.01 50 1007.2
20260509175003 78 248 10.0 12.0 0.00 0.01 0.01 52 1007.3
20260509174004 77 270 8.0 9.0 0.00 0.01 0.01 52 1007.4
20260509173003 77 270 8.0 11.0 0.00 0.01 0.01 54 1007.5
20260509172003 76 270 8.0 10.0 0.00 0.01 0.01 53 1007.6
20260509171003 76 248 9.0 10.0 0.00 0.01 0.01 55 1007.7
20260509170004 76 248 6.0 8.0 0.00 0.01 0.01 56 1007.7
20260509165003 74 248 6.0 8.0 0.00 0.01 0.01 57 1007.9
20260509164003 75 248 8.0 13.0 0.00 0.01 0.01 55 1007.8